Penticton, British Columbia

8:43 PM PDT on July 27, 2017 (GMT -0700)
Penticton

Weather History for CYYF - November, 2012

Change the Weather History Date:

Monday, November 19, 2012

  Actual Average Record
Temperature  
Mean Temperature 46 °F -  
Max Temperature 53 °F 38 °F 53 °F (2002)
Min Temperature 40 °F 27 °F 17 °F (1996)
Degree Days  
Heating Degree Days 18    
Moisture  
Dew Point 41 °F    
Average Humidity 78    
Maximum Humidity 89    
Minimum Humidity 57    
Precipitation  
Precipitation 0.20 in 0.04 in - ()
Sea Level Pressure  
Sea Level Pressure 29.57 in    
Wind  
Wind Speed 19 mph ()    
Max Wind Speed 30 mph    
Max Gust Speed 41 mph    
Visibility 13.8 miles    
Events Rain , Snow    
Averages and records for this station are not official NWS values.
T = Trace of Precipitation, MM = Missing Value Source: Averaged Metar Reports

Daily Weather History Graph

Daily Weather History Graph

Search for Another Location

Airport or City:

Trip Planner

Search our weather history database for the weather conditions in past years. The results will help you decide how hot, cold, wet, or windy it might be!

Date:

Astronomy

Nov. 19, 2012 Rise Set
Actual Time 7:16 AM PST 4:10 PM PST
Civil Twilight 6:41 AM PST 4:46 PM PST
Nautical Twilight 6:01 AM PST 5:25 PM PST
Astronomical Twilight 5:23 AM PST 6:03 PM PST
Moon 12:09 PM PST (11/19) 10:59 PM PST (11/19)
Length of Visible Light 10h 05m
Length of Day
8h 54m
Waxing Crescent, 42% of the Moon is Illuminated
Nov 19
Waxing Crescent
Nov 20
First Quarter
Nov 28
Full
Dec 6
Last Quarter
Dec 13
New

Hourly Weather History & Observations

Time (PST) Temp. Windchill Dew Point Humidity Pressure Visibility Wind Dir Wind Speed Gust Speed Precip Events Conditions
12:00 AM 41.0 °F 31.1 °F 37.4 °F 87% 29.70 in 15.0 mi South 23.0 mph 33.4 mph N/A Rain Light Rain Showers
1:00 AM 41.0 °F 32.2 °F 37.4 °F 87% 29.70 in 12.0 mi SSE 18.4 mph 27.6 mph N/A Rain Light Rain Showers
2:00 AM 42.8 °F 34.3 °F 37.4 °F 81% 29.69 in 12.0 mi South 19.6 mph 27.6 mph N/A Rain Light Rain Showers
3:00 AM 42.8 °F 33.8 °F 37.4 °F 81% 29.68 in 12.0 mi South 21.9 mph 32.2 mph N/A Rain Light Rain Showers
4:00 AM 44 °F - 39 °F 75% 29.67 in 12 mi South 18.4 mph - - Rain Light Rain Showers
4:00 AM 44.6 °F 37.2 °F 39.2 °F 81% 29.67 in 12.0 mi South 17.3 mph 29.9 mph N/A Rain Light Rain Showers
5:00 AM 44.6 °F 37.2 °F 39.2 °F 81% 29.65 in 12.0 mi South 17.3 mph 26.5 mph N/A   Overcast
6:00 AM 44.6 °F 36.9 °F 41.0 °F 87% 29.65 in 12.0 mi South 18.4 mph 26.5 mph N/A   Overcast
7:00 AM 46.4 °F 38.5 °F 41.0 °F 81% 29.65 in 12.0 mi South 21.9 mph 31.1 mph N/A Rain Light Rain Showers
8:00 AM 46.4 °F 37.9 °F 39.2 °F 76% 29.65 in 12.0 mi South 25.3 mph 32.2 mph N/A Rain Light Rain
9:00 AM 46.4 °F 38.5 °F 39.2 °F 76% 29.64 in 15.0 mi South 21.9 mph 31.1 mph N/A Rain Light Rain
10:00 AM 44 °F - 42 °F 89% 29.63 in 15 mi SSE 10.4 mph - - Snow Light Snow
10:00 AM 44.6 °F 38.8 °F 41.0 °F 87% 29.63 in 15.0 mi SSE 11.5 mph - N/A Rain Light Rain
11:00 AM 46.4 °F 39.8 °F 41.0 °F 81% 29.57 in 15.0 mi South 16.1 mph 28.8 mph N/A Rain Light Rain
12:00 PM 46.4 °F 37.7 °F 42.8 °F 87% 29.51 in 12.0 mi South 26.5 mph 33.4 mph N/A Rain Light Rain
1:00 PM 48.2 °F - 42.8 °F 82% 29.47 in 12.0 mi South 27.6 mph 38.0 mph N/A Rain Light Rain
2:00 PM 48.2 °F - 42.8 °F 82% 29.44 in 15.0 mi South 28.8 mph 38.0 mph N/A Rain Light Rain
3:00 PM 50.0 °F - 44.6 °F 82% 29.44 in 15.0 mi South 24.2 mph 35.7 mph N/A Rain Light Rain
4:00 PM 50 °F - 44 °F 73% 29.51 in 37 mi South 25.3 mph - - Rain Light Rain
4:00 PM 50.0 °F - 44.6 °F 82% 29.51 in 40.0 mi South 24.2 mph 34.5 mph N/A Rain Light Rain
5:00 PM 51.8 °F - 42.8 °F 71% 29.43 in 15.0 mi South 26.5 mph 35.7 mph N/A   Overcast
6:00 PM 51.8 °F - 42.8 °F 71% 29.49 in 15.0 mi South 27.6 mph 41.4 mph N/A   Overcast
7:00 PM 51.8 °F - 42.8 °F 71% 29.46 in 15.0 mi South 29.9 mph 35.7 mph N/A   Overcast
8:00 PM 53.6 °F - 42.8 °F 67% 29.46 in 15.0 mi South 26.5 mph 36.8 mph N/A   Overcast
9:00 PM 53.6 °F - 42.8 °F 67% 29.49 in 15.0 mi South 24.2 mph 32.2 mph N/A   Overcast
10:00 PM 53 °F - 42 °F 57%  in 15 mi South 20.7 mph - -   Partly Cloudy
10:00 PM 53.6 °F - 42.8 °F 67% 29.53 in 15.0 mi SSW 21.9 mph 29.9 mph N/A   Overcast
10:44 PM 51.8 °F - 42.8 °F 71% 29.57 in 15.0 mi SSW 11.5 mph - N/A Rain Light Rain
11:00 PM 50.0 °F - 42.8 °F 76% 29.57 in 15.0 mi SSW 6.9 mph - N/A Rain Light Rain
11:23 PM 50.0 °F - 42.8 °F 76% 29.58 in 15.0 mi South 16.1 mph - N/A   Mostly Cloudy